Regional Weather Roundup
Issued by NWS

Home | Current Version | Previous Version | Graphics & Text | Print | Product List | Glossary On
Versions: 1 2 3 4 5 6 7 8 9 10 11 12 13 14 15 16 17 18 19 20 21 22 23 24 25 26 27 28 29 30 31 32 33 34 35 36 37 38 39 40 41 42 43 44 45 46 47 48 49 50
000
ASUS43 KOAX 280210
RWRNE

WEATHER ROUNDUP FOR NEBRASKA
NATIONAL WEATHER SERVICE OMAHA NE
800 PM CST THU NOV 27 2014

NOTES: SATELLITE DATA IS BEING USED TO AUGMENT CLOUD COVER ABOVE
       12000 FEET.
       "FAIR" INDICATES FEW OR NO CLOUDS BELOW 12,000 FEET WITH NO
       SIGNIFICANT WEATHER AND/OR OBSTRUCTIONS TO VISIBILITY.

  * THESE STATIONS DO NOT REPORT WEATHER SUCH AS RAIN...SNOW OR FOG.

NEZ001>004-019>022-054>056-280300-
NEBRASKA PANHANDLE

CITY           SKY/WX    TMP DP  RH WIND       PRES   REMARKS
SCOTTSBLUFF    CLEAR     41  29  62 NW8       29.99S
ALLIANCE       CLEAR     32  23  69 W9        29.97R WCI  24
CHADRON        CLEAR    N/A N/A N/A CALM      29.95R
KIMBALL        CLEAR     45  27  50 W12       30.02S
SIDNEY         CLEAR     43  28  55 W12       30.03F
$$

NEZ057>060-069>072-079>082-280300-
SOUTHWEST NEBRASKA

CITY           SKY/WX    TMP DP  RH WIND       PRES   REMARKS
NORTH PLATTE   CLEAR     32  21  64 E6        30.00F WCI  26
IMPERIAL       CLEAR     40  26  57 W9        30.01S WCI  34
LEXINGTON      CLEAR     37  22  55 SE8       30.03F WCI  30
MCCOOK         CLEAR     43  26  51 S7        30.00F
OGALLALA       CLEAR     35  32  89 W5        30.00S WCI  31
$$

NEZ005>010-023>029-035>040-094-280300-
NORTH CENTRAL NEBRASKA

CITY           SKY/WX    TMP DP  RH WIND       PRES   REMARKS
VALENTINE      CLEAR     41  25  53 SW16      29.92F
AINSWORTH      CLEAR     36  22  57 S17       29.94F WCI  25
BROKEN BOW     CLEAR     31  19  61 SE6       30.03F WCI  25
O`NEILL        CLEAR     29  20  67 S14       30.03F WCI  19
ORD            CLEAR     30  18  60 SE9       30.06F WCI  22
THEDFORD       CLEAR     40  25  54 S10       29.97F WCI  34
$$

NEZ041-046>049-061>064-073>077-083>087-280300-
SOUTH CENTRAL NEBRASKA

CITY           SKY/WX    TMP DP  RH WIND       PRES   REMARKS
GRAND ISLAND   PTCLDY    32  17  54 SE9       30.11F WCI  24
AURORA         PTCLDY    30  18  60 SE9       30.12S WCI  22
HASTINGS       PTCLDY    32  17  54 S14       30.08F WCI  22
HEBRON         CLEAR     32  15  51 SE9       30.15F WCI  24
HOLDREGE       CLEAR     35  20  54 S14       30.04F WCI  26
KEARNEY *      CLEAR     28  16  59 SE7       30.07F WCI  21
YORK           CLEAR     30  19  64 SE13      30.15S WCI  20
$$

NEZ011>018-030>034-042>045-280300-
NORTHEAST NEBRASKA

CITY           SKY/WX    TMP DP  RH WIND       PRES   REMARKS
NORFOLK        PTCLDY    21  13  71 SE14      30.12F WCI   8
ALBION         CLEAR     27  17  66 SE10      30.11F WCI  17
BLAIR          PTCLDY    22  14  71 SE10      30.21F WCI  11
COLUMBUS *     CLEAR     23  12  63 E10       30.17F WCI  12
FREMONT        CLEAR     23  15  70 SE12G20   30.20F WCI  12
WAYNE          CLOUDY    20  11  67 S16G23    30.16F WCI   6
$$

NEZ050>053-065>068-078-088>093-280300-
SOUTHEAST NEBRASKA

CITY           SKY/WX    TMP DP  RH WIND       PRES   REMARKS
LINCOLN        CLEAR     27  14  58 SE12      30.21F WCI  17
OMAHA EPPLEY   PTCLDY    22  14  71 SE16      30.26F WCI   8
BEATRICE       CLEAR     31  20  62 SE10      30.20F WCI  22
FALLS CITY     CLEAR     26  18  71 SE9       30.28F WCI  17
NEBRASKA CITY  CLEAR     25  14  61 SE10      30.26F WCI  15
PLATTSMOUTH    CLEAR     23  14  67 SE9G16    30.25F WCI  13
$$

NEZ044-045-051>053-067-280300-
OMAHA AREA

CITY           SKY/WX    TMP DP  RH WIND       PRES   REMARKS
OMAHA EPPLEY   PTCLDY    22  14  71 SE16      30.26F WCI   8
BLAIR          PTCLDY    22  14  71 SE10      30.21F WCI  11
FREMONT        CLEAR     23  15  70 SE12G20   30.20F WCI  12
MILLARD        PTCLDY    24  15  69 SE9       30.24F WCI  14
OFFUTT AFB     PTCLDY    22  14  71 SE10      30.25F WCI  12
PLATTSMOUTH    CLEAR     23  14  67 SE9G16    30.25F WCI  13
WAHOO          FAIR      23  15  71 SE12      30.20F WCI  11
$$


USA.gov is the U.S. government's official web portal to all federal, state and local government web resources and services.